{"data":{"norad_id":55161,"intl_designator":"2023-004X","name":"ONEWEB-0620","alt_names":[],"object_type":"PAYLOAD","status":"ACTIVE","operator":null,"country":"UK","launch_date":"2023-01-10","launch_site_code":"AFETR","launch_vehicle":null,"mission":null,"orbit_class":"UNKNOWN","rcs_meters":null,"size_class":null,"mass_kg":null,"dimensions":null,"purposes":["comms"],"wikipedia_slug":null,"has_3d_model":false,"image_url":null,"decayed_at":null,"tle_current":{"epoch":"2026-05-25T02:19:05.430432Z","epoch_age_seconds":73578,"freshness":"FRESH","line1":"1 55161U 23004X   26145.09659063 -.00000072  00000+0 -23923-3 0  9995","line2":"2 55161  87.8910  25.6717 0001582  88.3780 271.7529 13.11418878162803","mean_motion":13.11418878,"eccentricity":0.0001582,"inclination_deg":87.891,"raan_deg":25.6717,"arg_perigee_deg":88.378,"mean_anomaly_deg":271.7529,"bstar":-0.00023923,"rev_number":16280,"period_min":109.80473319067,"perigee_km":1216.473576839,"apogee_km":1218.8768918299,"semimajor_km":7595.8122343344,"source":"CELESTRAK","updated_at":"2026-05-25T13:38:22.643876Z"}}}